Oelwein, IA

11:35 AM CST on February 24, 2017 (GMT -0600)
Oelwein Municipal

Weather History for KOLZ - October, 2012

Change the Weather History Date:

Wednesday, October 17, 2012

  Actual Average Record
Temperature  
Mean Temperature 54 °F -  
Max Temperature 62 °F 60 °F 85 °F (1950)
Min Temperature 46 °F 38 °F 20 °F (1992)
Degree Days  
Heating Degree Days 11    
Growing Degree Days 4 (Base 50)    
Moisture  
Dew Point 45 °F    
Average Humidity 75    
Maximum Humidity 94    
Minimum Humidity 54    
Precipitation  
Precipitation 0.02 in - - ()
Sea Level Pressure  
Sea Level Pressure 29.38 in    
Wind  
Wind Speed 10 mph (SW)    
Max Wind Speed 21 mph    
Max Gust Speed 26 mph    
Visibility 10 miles    
Events Rain    
Averages and records for this station are not official NWS values.
T = Trace of Precipitation, MM = Missing Value Source: NWS Daily Summary

Daily Weather History Graph

Daily Weather History Graph

Search for Another Location

Airport or City:

Trip Planner

Search our weather history database for the weather conditions in past years. The results will help you decide how hot, cold, wet, or windy it might be!

Date:

Astronomy

Oct. 17, 2012 Rise Set
Actual Time 7:24 AM CDT 6:21 PM CDT
Civil Twilight 6:55 AM CDT 6:50 PM CDT
Nautical Twilight 6:22 AM CDT 7:22 PM CDT
Astronomical Twilight 5:49 AM CDT 7:55 PM CDT
Moon 10:02 AM CDT (10/17) 7:53 PM CDT (10/17)
Length of Visible Light 11h 54m
Length of Day
10h 57m
Waxing Crescent, 7% of the Moon is Illuminated
Oct 17
Waxing Crescent
Oct 21
First Quarter
Oct 29
Full
Nov 6
Last Quarter
Nov 13
New

Hourly Weather History & Observations

Time (CDT) Temp. Windchill Dew Point Humidity Pressure Visibility Wind Dir Wind Speed Gust Speed Precip Events Conditions
12:13 AM 51.8 °F - 44.6 °F 76% 29.44 in 10.0 mi SSE 6.9 mph - N/A   Clear
12:15 AM 50.0 °F - 44.6 °F 82% 29.44 in 10.0 mi SSE 6.9 mph - N/A   Clear
12:33 AM 51.8 °F - 44.6 °F 76% 29.43 in 10.0 mi SSE 8.1 mph - N/A   Clear
12:35 AM 50.0 °F - 44.6 °F 82% 29.43 in 10.0 mi SSE 8.1 mph - N/A   Clear
12:53 AM 50.0 °F - 44.6 °F 82% 29.43 in 10.0 mi SSE 8.1 mph - N/A   Clear
12:55 AM 50.0 °F - 44.6 °F 82% 29.43 in 10.0 mi SSE 8.1 mph - N/A   Clear
1:13 AM 48.2 °F - 44.6 °F 87% 29.43 in 10.0 mi South 9.2 mph - N/A   Clear
1:15 AM 48.2 °F - 42.8 °F 82% 29.43 in 10.0 mi South 9.2 mph - N/A   Clear
1:33 AM 50.0 °F - 44.6 °F 82% 29.43 in 10.0 mi South 8.1 mph - N/A   Clear
1:35 AM 50.0 °F - 44.6 °F 82% 29.43 in 10.0 mi South 6.9 mph - N/A   Clear
1:53 AM 48.2 °F - 44.6 °F 87% 29.43 in 10.0 mi South 6.9 mph - N/A   Clear
1:55 AM 48.2 °F - 42.8 °F 82% 29.43 in 10.0 mi South 5.8 mph - N/A   Clear
2:13 AM 51.8 °F - 44.6 °F 76% 29.42 in 10.0 mi SW 6.9 mph - N/A   Clear
2:15 AM 50.0 °F - 44.6 °F 82% 29.42 in 10.0 mi SW 6.9 mph - N/A   Clear
2:33 AM 51.8 °F - 44.6 °F 76% 29.43 in 10.0 mi South 8.1 mph - N/A   Clear
2:35 AM 50.0 °F - 44.6 °F 82% 29.43 in 10.0 mi South 9.2 mph - N/A   Clear
2:53 AM 51.8 °F - 44.6 °F 76% 29.42 in 10.0 mi SSW 3.5 mph - N/A   Clear
2:55 AM 50.0 °F - 44.6 °F 82% 29.42 in 10.0 mi South 4.6 mph - N/A   Clear
3:13 AM 50.0 °F - 44.6 °F 82% 29.40 in 10.0 mi SSE 5.8 mph - N/A   Clear
3:15 AM 50.0 °F - 44.6 °F 82% 29.40 in 10.0 mi SSE 5.8 mph - N/A   Clear
3:33 AM 50.0 °F - 44.6 °F 82% 29.40 in 10.0 mi SSE 8.1 mph - N/A   Clear
3:35 AM 50.0 °F - 44.6 °F 82% 29.40 in 10.0 mi SSE 5.8 mph - N/A   Clear
3:53 AM 50.0 °F - 44.6 °F 82% 29.40 in 10.0 mi SE 8.1 mph - N/A   Clear
3:55 AM 50.0 °F - 42.8 °F 76% 29.40 in 10.0 mi SSE 8.1 mph - N/A   Clear
4:13 AM 51.8 °F - 44.6 °F 76% 29.39 in 10.0 mi SSE 5.8 mph - N/A   Clear
4:15 AM 50.0 °F - 42.8 °F 76% 29.39 in 10.0 mi SSE 5.8 mph - N/A   Clear
5:13 AM 51.8 °F - 46.4 °F 82% 29.39 in 10.0 mi South 8.1 mph - N/A   Clear
5:15 AM 50.0 °F - 44.6 °F 82% 29.39 in 10.0 mi SSE 6.9 mph - N/A   Clear
5:33 AM 51.8 °F - 46.4 °F 82% 29.39 in 10.0 mi South 8.1 mph - N/A   Clear
5:35 AM 50.0 °F - 46.4 °F 87% 29.39 in 10.0 mi South 9.2 mph - N/A   Clear
5:53 AM 51.8 °F - 48.2 °F 88% 29.38 in 10.0 mi SSE 8.1 mph - N/A   Clear
5:55 AM 51.8 °F - 46.4 °F 82% 29.38 in 10.0 mi SSE 8.1 mph - N/A   Clear
6:13 AM 51.8 °F - 48.2 °F 88% 29.37 in 10.0 mi SSE 9.2 mph - N/A   Clear
6:15 AM 51.8 °F - 46.4 °F 82% 29.37 in 10.0 mi SSE 9.2 mph - N/A   Clear
6:33 AM 51.8 °F - 48.2 °F 88% 29.37 in 10.0 mi SSE 10.4 mph - N/A   Clear
6:35 AM 51.8 °F - 46.4 °F 82% 29.37 in 10.0 mi SSE 9.2 mph - N/A   Clear
6:53 AM 53.6 °F - 48.2 °F 82% 29.36 in 10.0 mi South 10.4 mph - N/A   Clear
6:55 AM 51.8 °F - 46.4 °F 82% 29.36 in 10.0 mi SSE 11.5 mph - N/A   Clear
7:13 AM 53.6 °F - 48.2 °F 82% 29.35 in 10.0 mi SSE 10.4 mph - N/A   Clear
7:15 AM 53.6 °F - 46.4 °F 77% 29.35 in 10.0 mi SSE 10.4 mph - N/A   Clear
7:33 AM 53.6 °F - 48.2 °F 82% 29.34 in 10.0 mi SSE 13.8 mph - N/A   Clear
7:35 AM 53.6 °F - 46.4 °F 77% 29.34 in 10.0 mi SSE 15.0 mph - N/A   Clear
7:53 AM 55.4 °F - 46.4 °F 72% 29.34 in 10.0 mi South 11.5 mph - N/A   Clear
7:55 AM 53.6 °F - 46.4 °F 77% 29.34 in 10.0 mi South 11.5 mph - N/A   Clear
8:14 AM 55.4 °F - 48.2 °F 77% 29.34 in 10.0 mi South 13.8 mph 18.4 mph N/A   Clear
8:15 AM 53.6 °F - 46.4 °F 77% 29.34 in 10.0 mi South 12.7 mph 18.4 mph N/A   Clear
8:33 AM 55.4 °F - 48.2 °F 77% 29.35 in 10.0 mi South 12.7 mph 17.3 mph N/A   Clear
8:35 AM 55.4 °F - 46.4 °F 72% 29.35 in 10.0 mi South 12.7 mph 17.3 mph N/A   Scattered Clouds
8:53 AM 55.4 °F - 48.2 °F 77% 29.36 in 7.0 mi South 12.7 mph - N/A   Scattered Clouds
8:55 AM 55.4 °F - 46.4 °F 72% 29.35 in 7.0 mi South 13.8 mph - N/A   Scattered Clouds
9:13 AM 55.4 °F - 48.2 °F 77% 29.35 in 10.0 mi South 13.8 mph - N/A   Scattered Clouds
9:15 AM 55.4 °F - 48.2 °F 77% 29.35 in 10.0 mi South 13.8 mph - N/A   Clear
9:33 AM 57.2 °F - 48.2 °F 72% 29.35 in 10.0 mi South 13.8 mph - N/A   Clear
9:35 AM 57.2 °F - 48.2 °F 72% 29.35 in 10.0 mi South 15.0 mph - N/A   Clear
9:53 AM 57.2 °F - 48.2 °F 72% 29.35 in 10.0 mi South 12.7 mph - N/A   Clear
9:55 AM 57.2 °F - 48.2 °F 72% 29.35 in 10.0 mi South 15.0 mph - N/A   Clear
10:13 AM 59.0 °F - 48.2 °F 67% 29.35 in 10.0 mi SSW 13.8 mph 19.6 mph N/A   Scattered Clouds
10:15 AM 59.0 °F - 50.0 °F 72% 29.35 in 10.0 mi SSW 12.7 mph 19.6 mph N/A   Scattered Clouds
10:33 AM 60.8 °F - 50.0 °F 68% 29.35 in 10.0 mi SW 13.8 mph 18.4 mph N/A   Scattered Clouds
10:35 AM 60.8 °F - 50.0 °F 68% 29.35 in 10.0 mi SW 12.7 mph 18.4 mph N/A   Scattered Clouds
10:53 AM 62.6 °F - 50.0 °F 63% 29.35 in 10.0 mi SW 12.7 mph - N/A   Clear
10:55 AM 60.8 °F - 50.0 °F 68% 29.35 in 10.0 mi SW 13.8 mph - N/A   Clear
11:33 AM 60.8 °F - 51.8 °F 72% 29.36 in 10.0 mi WSW 13.8 mph 18.4 mph N/A   Light Drizzle
11:35 AM 59.0 °F - 50.0 °F 72% 29.36 in 10.0 mi WSW 12.7 mph 18.4 mph N/A   Light Drizzle
11:53 AM 60.8 °F - 51.8 °F 72% 29.37 in 10.0 mi SW 9.2 mph - N/A Rain Light Rain
11:55 AM 59.0 °F - 51.8 °F 77% 29.37 in 10.0 mi SW 10.4 mph - N/A Rain Light Rain
12:13 PM 59.0 °F - 51.8 °F 77% 29.37 in 10.0 mi SW 16.1 mph 20.7 mph N/A Rain Light Rain
12:15 PM 59.0 °F - 51.8 °F 77% 29.37 in 10.0 mi WSW 16.1 mph 20.7 mph N/A Rain Light Rain
12:33 PM 59.0 °F - 51.8 °F 77% 29.37 in 10.0 mi WSW 13.8 mph - N/A   Clear
12:35 PM 59.0 °F - 50.0 °F 72% 29.37 in 10.0 mi WSW 12.7 mph - N/A   Clear
12:53 PM 57.2 °F - 50.0 °F 77% 29.37 in 10.0 mi West 13.8 mph 18.4 mph N/A   Clear
12:55 PM 57.2 °F - 50.0 °F 77% 29.37 in 10.0 mi WSW 15.0 mph 18.4 mph N/A   Clear
1:13 PM 57.2 °F - 50.0 °F 77% 29.36 in 10.0 mi West 15.0 mph - N/A   Clear
1:15 PM 57.2 °F - 50.0 °F 77% 29.37 in 10.0 mi West 16.1 mph - N/A   Clear
1:33 PM 55.4 °F - 50.0 °F 82% 29.37 in 10.0 mi WSW 12.7 mph 20.7 mph N/A Rain Light Rain
1:35 PM 55.4 °F - 50.0 °F 82% 29.37 in 10.0 mi WSW 11.5 mph - N/A Rain Light Rain
1:53 PM 55.4 °F - 50.0 °F 82% 29.37 in 10.0 mi West 13.8 mph - N/A Rain Rain
1:55 PM 53.6 °F - 50.0 °F 88% 29.37 in 10.0 mi West 11.5 mph 16.1 mph N/A Rain Rain
2:13 PM 53.6 °F - 50.0 °F 88% 29.36 in 10.0 mi West 10.4 mph - N/A Rain Rain
2:15 PM 53.6 °F - 50.0 °F 88% 29.36 in 10.0 mi West 11.5 mph - N/A   Drizzle
2:33 PM 53.6 °F - 51.8 °F 94% 29.37 in 10.0 mi WSW 8.1 mph - 0.01 in Rain Light Rain
2:35 PM 53.6 °F - 50.0 °F 88% 29.37 in 10.0 mi WSW 9.2 mph - 0.01 in Rain Light Rain
2:53 PM 53.6 °F - 51.8 °F 94% 29.36 in 10.0 mi WSW 5.8 mph - 0.01 in   Drizzle
2:55 PM 53.6 °F - 50.0 °F 88% 29.35 in 10.0 mi WSW 5.8 mph - 0.01 in   Drizzle
3:13 PM 53.6 °F - 51.8 °F 94% 29.34 in 10.0 mi West 9.2 mph - 0.01 in Rain Light Rain
3:15 PM 53.6 °F - 50.0 °F 88% 29.34 in 10.0 mi West 10.4 mph - 0.01 in Rain Light Rain
3:33 PM 55.4 °F - 51.8 °F 88% 29.34 in 10.0 mi West 6.9 mph - 0.01 in   Scattered Clouds
3:35 PM 53.6 °F - 50.0 °F 88% 29.34 in 10.0 mi West 9.2 mph - 0.01 in   Scattered Clouds
3:53 PM 55.4 °F - 51.8 °F 88% 29.35 in 10.0 mi WSW 6.9 mph - 0.01 in   Clear
3:55 PM 55.4 °F - 50.0 °F 82% 29.35 in 10.0 mi WSW 8.1 mph - 0.01 in   Clear
4:13 PM 55.4 °F - 51.8 °F 88% 29.36 in 10.0 mi SW 8.1 mph - N/A   Clear
4:15 PM 55.4 °F - 50.0 °F 82% 29.36 in 10.0 mi SW 9.2 mph - N/A   Clear
4:33 PM 55.4 °F - 50.0 °F 82% 29.35 in 10.0 mi SW 8.1 mph - N/A   Clear
4:35 PM 55.4 °F - 50.0 °F 82% 29.35 in 10.0 mi SW 8.1 mph - N/A   Clear
4:53 PM 57.2 °F - 46.4 °F 67% 29.35 in 10.0 mi West 13.8 mph 19.6 mph N/A   Clear
4:55 PM 55.4 °F - 42.8 °F 63% 29.35 in 10.0 mi West 13.8 mph 19.6 mph N/A   Clear
5:13 PM 55.4 °F - 39.2 °F 54% 29.36 in 10.0 mi West 16.1 mph - N/A   Clear
5:15 PM 55.4 °F - 39.2 °F 54% 29.37 in 10.0 mi West 12.7 mph - N/A   Clear
5:33 PM 55.4 °F - 39.2 °F 54% 29.37 in 10.0 mi West 8.1 mph - N/A   Clear
5:35 PM 53.6 °F - 41.0 °F 62% 29.37 in 10.0 mi WSW 6.9 mph - N/A   Clear
5:53 PM 53.6 °F - 41.0 °F 62% 29.38 in 10.0 mi WSW 11.5 mph - N/A   Clear
5:55 PM 53.6 °F - 41.0 °F 62% 29.38 in 10.0 mi WSW 13.8 mph 18.4 mph N/A   Clear
6:13 PM 53.6 °F - 37.4 °F 54% 29.38 in 10.0 mi West 16.1 mph 23.0 mph N/A   Clear
6:15 PM 53.6 °F - 37.4 °F 54% 29.38 in 10.0 mi West 17.3 mph 23.0 mph N/A   Clear
6:33 PM 53.6 °F - 37.4 °F 54% 29.39 in 10.0 mi West 13.8 mph - N/A   Clear
6:35 PM 51.8 °F - 37.4 °F 58% 29.39 in 10.0 mi West 13.8 mph 19.6 mph N/A   Clear
6:53 PM 51.8 °F - 37.4 °F 58% 29.38 in 10.0 mi West 13.8 mph - N/A   Clear
6:55 PM 51.8 °F - 37.4 °F 58% 29.38 in 10.0 mi West 15.0 mph - N/A   Clear
7:13 PM 51.8 °F - 39.2 °F 62% 29.39 in 10.0 mi West 10.4 mph - N/A   Clear
7:15 PM 50.0 °F - 37.4 °F 62% 29.40 in 10.0 mi West 9.2 mph - N/A   Clear
7:33 PM 51.8 °F - 39.2 °F 62% 29.40 in 10.0 mi West 10.4 mph - N/A   Clear
7:35 PM 51.8 °F - 37.4 °F 58% 29.39 in 10.0 mi West 9.2 mph - N/A   Clear
7:53 PM 51.8 °F - 37.4 °F 58% 29.39 in 10.0 mi West 17.3 mph 23.0 mph N/A   Clear
7:55 PM 51.8 °F - 37.4 °F 58% 29.39 in 10.0 mi West 17.3 mph 23.0 mph N/A   Clear
8:13 PM 51.8 °F - 39.2 °F 62% 29.39 in 10.0 mi West 17.3 mph 21.9 mph N/A   Clear
8:15 PM 50.0 °F - 37.4 °F 62% 29.39 in 10.0 mi West 20.7 mph 24.2 mph N/A   Clear
8:33 PM 50.0 °F - 39.2 °F 66% 29.38 in 10.0 mi West 16.1 mph 20.7 mph N/A   Clear
8:35 PM 50.0 °F - 37.4 °F 62% 29.38 in 10.0 mi West 16.1 mph 20.7 mph N/A   Clear
8:53 PM 48.2 °F - 39.2 °F 71% 29.37 in 10.0 mi West 16.1 mph 23.0 mph N/A   Clear
8:55 PM 48.2 °F - 37.4 °F 66% 29.37 in 10.0 mi West 18.4 mph 23.0 mph N/A   Clear
9:13 PM 48.2 °F - 39.2 °F 71% 29.37 in 10.0 mi West 18.4 mph 24.2 mph N/A   Clear
9:33 PM 48.2 °F - 39.2 °F 71% 29.38 in 10.0 mi West 18.4 mph 26.5 mph N/A   Clear
9:35 PM 46.4 °F 39.5 °F 37.4 °F 71% 29.38 in 10.0 mi West 17.3 mph 25.3 mph N/A   Clear
9:53 PM 48.2 °F - 37.4 °F 66% 29.37 in 10.0 mi West 16.1 mph 21.9 mph N/A   Clear
9:55 PM 46.4 °F 39.2 °F 37.4 °F 71% 29.37 in 10.0 mi West 18.4 mph 21.9 mph N/A   Clear
10:13 PM 48.2 °F - 37.4 °F 66% 29.37 in 10.0 mi West 18.4 mph 24.2 mph N/A   Clear
10:15 PM 46.4 °F 39.5 °F 37.4 °F 71% 29.37 in 10.0 mi West 17.3 mph 24.2 mph N/A   Clear
10:53 PM 48.2 °F - 37.4 °F 66% 29.35 in 10.0 mi West 16.1 mph 21.9 mph N/A   Clear
10:55 PM 46.4 °F 39.2 °F 37.4 °F 71% 29.35 in 10.0 mi West 18.4 mph 24.2 mph N/A   Clear
11:13 PM 48.2 °F - 37.4 °F 66% 29.35 in 10.0 mi West 17.3 mph - N/A   Clear
11:15 PM 46.4 °F 39.5 °F 35.6 °F 66% 29.36 in 10.0 mi West 17.3 mph 25.3 mph N/A   Clear
11:33 PM 48.2 °F - 37.4 °F 66% 29.36 in 10.0 mi West 17.3 mph 23.0 mph N/A   Clear
11:35 PM 46.4 °F 39.8 °F 35.6 °F 66% 29.36 in 10.0 mi West 16.1 mph 23.0 mph N/A   Clear
11:53 PM 46.4 °F 40.1 °F 37.4 °F 71% 29.35 in 10.0 mi West 15.0 mph 20.7 mph N/A   Clear
11:55 PM 46.4 °F 40.1 °F 35.6 °F 66% 29.36 in 10.0 mi West 15.0 mph 20.7 mph N/A   Clear